Year,Month,Day,Hour,Minute,Value (Times are PST for insolation in W/m^2)
2020,08,08,00,00,0.00
2020,08,08,00,01,0.00
2020,08,08,00,02,0.00
2020,08,08,00,03,0.00
2020,08,08,00,04,0.00
2020,08,08,00,05,0.00
2020,08,08,00,06,0.00
2020,08,08,00,07,0.00
2020,08,08,00,08,0.00
2020,08,08,00,09,0.00
2020,08,08,00,10,0.00
2020,08,08,00,11,0.00
2020,08,08,00,12,0.00
2020,08,08,00,13,0.00
2020,08,08,00,14,0.00
2020,08,08,00,15,0.00
2020,08,08,00,16,0.00
2020,08,08,00,17,0.00
2020,08,08,00,18,0.00
2020,08,08,00,19,0.00
2020,08,08,00,20,0.00
2020,08,08,00,21,0.00
2020,08,08,00,22,0.00
2020,08,08,00,23,0.00
2020,08,08,00,24,0.00
2020,08,08,00,25,0.00
2020,08,08,00,26,0.00
2020,08,08,00,27,0.00
2020,08,08,00,28,0.00
2020,08,08,00,29,0.00
2020,08,08,00,30,0.00
2020,08,08,00,31,0.00
2020,08,08,00,32,0.00
2020,08,08,00,33,0.00
2020,08,08,00,34,0.00
2020,08,08,00,35,0.00
2020,08,08,00,36,0.00
2020,08,08,00,37,0.00
2020,08,08,00,38,0.00
2020,08,08,00,39,0.00
2020,08,08,00,40,0.00
2020,08,08,00,41,0.00
2020,08,08,00,42,0.00
2020,08,08,00,43,0.00
2020,08,08,00,44,0.00
2020,08,08,00,45,0.00
2020,08,08,00,46,0.00
2020,08,08,00,47,0.00
2020,08,08,00,48,0.00
2020,08,08,00,49,0.00
2020,08,08,00,50,0.00
2020,08,08,00,51,0.00
2020,08,08,00,52,0.00
2020,08,08,00,53,0.00
2020,08,08,00,54,0.00
2020,08,08,00,55,0.00
2020,08,08,00,56,0.00
2020,08,08,00,57,0.00
2020,08,08,00,58,0.00
2020,08,08,00,59,0.00
2020,08,08,01,00,0.00
2020,08,08,01,01,0.00
2020,08,08,01,02,0.00
2020,08,08,01,03,0.00
2020,08,08,01,04,0.00
2020,08,08,01,05,0.00
2020,08,08,01,06,0.00
2020,08,08,01,07,0.00
2020,08,08,01,08,0.00
2020,08,08,01,09,0.00
2020,08,08,01,10,0.00
2020,08,08,01,11,0.00
2020,08,08,01,12,0.00
2020,08,08,01,13,0.00
2020,08,08,01,14,0.00
2020,08,08,01,15,0.00
2020,08,08,01,16,0.00
2020,08,08,01,17,0.00
2020,08,08,01,18,0.00
2020,08,08,01,19,0.00
2020,08,08,01,20,0.00
2020,08,08,01,21,0.00
2020,08,08,01,22,0.00
2020,08,08,01,23,0.00
2020,08,08,01,24,0.00
2020,08,08,01,25,0.00
2020,08,08,01,26,0.00
2020,08,08,01,27,0.00
2020,08,08,01,28,0.00
2020,08,08,01,29,0.00
2020,08,08,01,30,0.00
2020,08,08,01,31,0.00
2020,08,08,01,32,0.00
2020,08,08,01,33,0.00
2020,08,08,01,34,0.00
2020,08,08,01,35,0.00
2020,08,08,01,36,0.00
2020,08,08,01,37,0.00
2020,08,08,01,38,0.00
2020,08,08,01,39,0.00
2020,08,08,01,40,0.00
2020,08,08,01,41,0.00
2020,08,08,01,42,0.00
2020,08,08,01,43,0.00
2020,08,08,01,44,0.00
2020,08,08,01,45,0.00
2020,08,08,01,46,0.00
2020,08,08,01,47,0.00
2020,08,08,01,48,0.00
2020,08,08,01,49,0.00
2020,08,08,01,50,0.00
2020,08,08,01,51,0.00
2020,08,08,01,52,0.00
2020,08,08,01,53,0.00
2020,08,08,01,54,0.00
2020,08,08,01,55,0.00
2020,08,08,01,56,0.00
2020,08,08,01,57,0.00
2020,08,08,01,58,0.00
2020,08,08,01,59,0.00
2020,08,08,02,00,0.00
2020,08,08,02,01,0.00
2020,08,08,02,02,0.00
2020,08,08,02,03,0.00
2020,08,08,02,04,0.00
2020,08,08,02,05,0.00
2020,08,08,02,06,0.00
2020,08,08,02,07,0.00
2020,08,08,02,08,0.00
2020,08,08,02,09,0.00
2020,08,08,02,10,0.00
2020,08,08,02,11,0.00
2020,08,08,02,12,0.00
2020,08,08,02,13,0.00
2020,08,08,02,14,0.00
2020,08,08,02,15,0.00
2020,08,08,02,16,0.00
2020,08,08,02,17,0.00
2020,08,08,02,18,0.00
2020,08,08,02,19,0.00
2020,08,08,02,20,0.00
2020,08,08,02,21,0.00
2020,08,08,02,22,0.00
2020,08,08,02,23,0.00
2020,08,08,02,24,0.00
2020,08,08,02,25,0.00
2020,08,08,02,26,0.00
2020,08,08,02,27,0.00
2020,08,08,02,28,0.00
2020,08,08,02,29,0.00
2020,08,08,02,30,0.00
2020,08,08,02,31,0.00
2020,08,08,02,32,0.00
2020,08,08,02,33,0.00
2020,08,08,02,34,0.00
2020,08,08,02,35,0.00
2020,08,08,02,36,0.00
2020,08,08,02,37,0.00
2020,08,08,02,38,0.00
2020,08,08,02,39,0.00
2020,08,08,02,40,0.00
2020,08,08,02,41,0.00
2020,08,08,02,42,0.00
2020,08,08,02,43,0.00
2020,08,08,02,44,0.00
2020,08,08,02,45,0.00
2020,08,08,02,46,0.00
2020,08,08,02,47,0.00
2020,08,08,02,48,0.00
2020,08,08,02,49,0.00
2020,08,08,02,50,0.00
2020,08,08,02,51,0.00
2020,08,08,02,52,0.00
2020,08,08,02,53,0.00
2020,08,08,02,54,0.00
2020,08,08,02,55,0.00
2020,08,08,02,56,0.00
2020,08,08,02,57,0.00
2020,08,08,02,58,0.00
2020,08,08,02,59,0.00
2020,08,08,03,00,0.00
2020,08,08,03,01,0.00
2020,08,08,03,02,0.00
2020,08,08,03,03,0.00
2020,08,08,03,04,0.00
2020,08,08,03,05,0.00
2020,08,08,03,06,0.00
2020,08,08,03,07,0.00
2020,08,08,03,08,0.00
2020,08,08,03,09,0.00
2020,08,08,03,10,0.00
2020,08,08,03,11,0.00
2020,08,08,03,12,0.00
2020,08,08,03,13,0.00
2020,08,08,03,14,0.00
2020,08,08,03,15,0.00
2020,08,08,03,16,0.00
2020,08,08,03,17,0.00
2020,08,08,03,18,0.00
2020,08,08,03,19,0.00
2020,08,08,03,20,0.00
2020,08,08,03,21,0.00
2020,08,08,03,22,0.00
2020,08,08,03,23,0.00
2020,08,08,03,24,0.00
2020,08,08,03,25,0.00
2020,08,08,03,26,0.00
2020,08,08,03,27,0.00
2020,08,08,03,28,0.00
2020,08,08,03,29,0.00
2020,08,08,03,30,0.00
2020,08,08,03,31,0.00
2020,08,08,03,32,0.00
2020,08,08,03,33,0.00
2020,08,08,03,34,0.00
2020,08,08,03,35,0.00
2020,08,08,03,36,0.00
2020,08,08,03,37,0.00
2020,08,08,03,38,0.00
2020,08,08,03,39,0.00
2020,08,08,03,40,0.00
2020,08,08,03,41,0.00
2020,08,08,03,42,0.00
2020,08,08,03,43,0.00
2020,08,08,03,44,0.00
2020,08,08,03,45,0.00
2020,08,08,03,46,0.00
2020,08,08,03,47,0.00
2020,08,08,03,48,0.00
2020,08,08,03,49,0.00
2020,08,08,03,50,0.00
2020,08,08,03,51,0.00
2020,08,08,03,52,0.00
2020,08,08,03,53,0.00
2020,08,08,03,54,0.00
2020,08,08,03,55,0.00
2020,08,08,03,56,0.00
2020,08,08,03,57,0.00
2020,08,08,03,58,0.00
2020,08,08,03,59,0.00
2020,08,08,04,00,0.00
2020,08,08,04,01,0.00
2020,08,08,04,02,0.00
2020,08,08,04,03,0.00
2020,08,08,04,04,0.00
2020,08,08,04,05,0.00
2020,08,08,04,06,0.00
2020,08,08,04,07,0.00
2020,08,08,04,08,0.00
2020,08,08,04,09,0.00
2020,08,08,04,10,0.00
2020,08,08,04,11,0.00
2020,08,08,04,12,0.00
2020,08,08,04,13,0.00
2020,08,08,04,14,0.00
2020,08,08,04,15,0.00
2020,08,08,04,16,0.00
2020,08,08,04,17,0.00
2020,08,08,04,18,0.00
2020,08,08,04,19,0.00
2020,08,08,04,20,0.00
2020,08,08,04,21,0.00
2020,08,08,04,22,0.00
2020,08,08,04,23,0.00
2020,08,08,04,24,0.00
2020,08,08,04,25,0.00
2020,08,08,04,26,0.00
2020,08,08,04,27,0.00
2020,08,08,04,28,0.00
2020,08,08,04,29,0.00
2020,08,08,04,30,0.00
2020,08,08,04,31,0.00
2020,08,08,04,32,0.00
2020,08,08,04,33,0.00
2020,08,08,04,34,0.00
2020,08,08,04,35,0.00
2020,08,08,04,36,0.00
2020,08,08,04,37,0.00
2020,08,08,04,38,0.00
2020,08,08,04,39,0.00
2020,08,08,04,40,0.00
2020,08,08,04,41,0.00
2020,08,08,04,42,0.00
2020,08,08,04,43,0.00
2020,08,08,04,44,0.00
2020,08,08,04,45,0.00
2020,08,08,04,46,0.00
2020,08,08,04,47,0.00
2020,08,08,04,48,0.00
2020,08,08,04,49,0.00
2020,08,08,04,50,0.00
2020,08,08,04,51,0.00
2020,08,08,04,52,0.00
2020,08,08,04,53,0.00
2020,08,08,04,54,0.00
2020,08,08,04,55,0.00
2020,08,08,04,56,0.00
2020,08,08,04,57,0.00
2020,08,08,04,58,0.00
2020,08,08,04,59,0.00
2020,08,08,05,00,0.00
2020,08,08,05,01,0.00
2020,08,08,05,02,0.00
2020,08,08,05,03,0.00
2020,08,08,05,04,0.00
2020,08,08,05,05,0.00
2020,08,08,05,06,0.00
2020,08,08,05,07,0.00
2020,08,08,05,08,0.00
2020,08,08,05,09,0.00
2020,08,08,05,10,0.00
2020,08,08,05,11,0.00
2020,08,08,05,12,0.00
2020,08,08,05,13,0.00
2020,08,08,05,14,0.00
2020,08,08,05,15,0.00
2020,08,08,05,16,0.00
2020,08,08,05,17,0.00
2020,08,08,05,18,0.00
2020,08,08,05,19,0.00
2020,08,08,05,20,0.00
2020,08,08,05,21,0.00
2020,08,08,05,22,0.00
2020,08,08,05,23,0.00
2020,08,08,05,24,0.00
2020,08,08,05,25,0.00
2020,08,08,05,26,0.00
2020,08,08,05,27,0.00
2020,08,08,05,28,0.00
2020,08,08,05,29,0.00
2020,08,08,05,30,0.00
2020,08,08,05,31,0.00
2020,08,08,05,32,0.00
2020,08,08,05,33,0.00
2020,08,08,05,34,0.00
2020,08,08,05,35,0.00
2020,08,08,05,36,0.00
2020,08,08,05,37,0.00
2020,08,08,05,38,0.00
2020,08,08,05,39,0.00
2020,08,08,05,40,0.00
2020,08,08,05,41,0.00
2020,08,08,05,42,0.00
2020,08,08,05,43,0.00
2020,08,08,05,44,0.00
2020,08,08,05,45,0.00
2020,08,08,05,46,0.00
2020,08,08,05,47,0.00
2020,08,08,05,48,0.00
2020,08,08,05,49,0.00
2020,08,08,05,50,0.00
2020,08,08,05,51,0.00
2020,08,08,05,52,0.00
2020,08,08,05,53,0.00
2020,08,08,05,54,0.00
2020,08,08,05,55,0.00
2020,08,08,05,56,0.00
2020,08,08,05,57,0.00
2020,08,08,05,58,0.00
2020,08,08,05,59,0.00
2020,08,08,06,00,0.00
2020,08,08,06,01,0.00
2020,08,08,06,02,0.00
2020,08,08,06,03,0.00
2020,08,08,06,04,0.00
2020,08,08,06,05,0.00
2020,08,08,06,06,0.00
2020,08,08,06,07,0.00
2020,08,08,06,08,0.00
2020,08,08,06,09,0.00
2020,08,08,06,10,0.00
2020,08,08,06,11,0.80
2020,08,08,06,12,5.00
2020,08,08,06,13,5.00
2020,08,08,06,14,5.00
2020,08,08,06,15,5.00
2020,08,08,06,16,5.00
2020,08,08,06,17,5.00
2020,08,08,06,18,5.00
2020,08,08,06,19,5.10
2020,08,08,06,20,7.00
2020,08,08,06,21,7.00
2020,08,08,06,22,7.00
2020,08,08,06,23,7.00
2020,08,08,06,24,8.10
2020,08,08,06,25,9.00
2020,08,08,06,26,9.00
2020,08,08,06,27,9.00
2020,08,08,06,28,11.00
2020,08,08,06,29,11.00
2020,08,08,06,30,11.00
2020,08,08,06,31,11.40
2020,08,08,06,32,12.00
2020,08,08,06,33,12.00
2020,08,08,06,34,12.00
2020,08,08,06,35,12.00
2020,08,08,06,36,13.90
2020,08,08,06,37,14.00
2020,08,08,06,38,14.50
2020,08,08,06,39,16.00
2020,08,08,06,40,17.00
2020,08,08,06,41,18.00
2020,08,08,06,42,16.60
2020,08,08,06,43,16.00
2020,08,08,06,44,16.00
2020,08,08,06,45,16.00
2020,08,08,06,46,16.00
2020,08,08,06,47,16.90
2020,08,08,06,48,20.60
2020,08,08,06,49,24.00
2020,08,08,06,50,25.60
2020,08,08,06,51,25.30
2020,08,08,06,52,23.40
2020,08,08,06,53,19.40
2020,08,08,06,54,18.10
2020,08,08,06,55,19.00
2020,08,08,06,56,19.00
2020,08,08,06,57,19.90
2020,08,08,06,58,21.00
2020,08,08,06,59,23.70
2020,08,08,07,00,25.80
2020,08,08,07,01,27.70
2020,08,08,07,02,30.20
2020,08,08,07,03,32.20
2020,08,08,07,04,33.50
2020,08,08,07,05,35.80
2020,08,08,07,06,38.00
2020,08,08,07,07,39.60
2020,08,08,07,08,41.40
2020,08,08,07,09,46.00
2020,08,08,07,10,52.40
2020,08,08,07,11,58.20
2020,08,08,07,12,63.00
2020,08,08,07,13,79.80
2020,08,08,07,14,95.20
2020,08,08,07,15,96.10
2020,08,08,07,16,90.90
2020,08,08,07,17,73.20
2020,08,08,07,18,65.60
2020,08,08,07,19,56.00
2020,08,08,07,20,44.70
2020,08,08,07,21,35.80
2020,08,08,07,22,32.00
2020,08,08,07,23,32.00
2020,08,08,07,24,30.80
2020,08,08,07,25,28.70
2020,08,08,07,26,28.00
2020,08,08,07,27,29.80
2020,08,08,07,28,32.00
2020,08,08,07,29,31.60
2020,08,08,07,30,29.40
2020,08,08,07,31,28.00
2020,08,08,07,32,26.50
2020,08,08,07,33,23.80
2020,08,08,07,34,25.10
2020,08,08,07,35,31.60
2020,08,08,07,36,45.80
2020,08,08,07,37,51.00
2020,08,08,07,38,50.50
2020,08,08,07,39,50.40
2020,08,08,07,40,53.00
2020,08,08,07,41,51.90
2020,08,08,07,42,53.00
2020,08,08,07,43,55.50
2020,08,08,07,44,54.30
2020,08,08,07,45,54.00
2020,08,08,07,46,53.80
2020,08,08,07,47,54.40
2020,08,08,07,48,62.60
2020,08,08,07,49,73.50
2020,08,08,07,50,77.00
2020,08,08,07,51,77.00
2020,08,08,07,52,84.20
2020,08,08,07,53,113.00
2020,08,08,07,54,135.50
2020,08,08,07,55,143.50
2020,08,08,07,56,140.50
2020,08,08,07,57,138.70
2020,08,08,07,58,141.00
2020,08,08,07,59,135.10
2020,08,08,08,00,134.20
2020,08,08,08,01,130.80
2020,08,08,08,02,122.80
2020,08,08,08,03,109.90
2020,08,08,08,04,103.50
2020,08,08,08,05,103.10
2020,08,08,08,06,109.00
2020,08,08,08,07,119.90
2020,08,08,08,08,122.30
2020,08,08,08,09,129.80
2020,08,08,08,10,125.70
2020,08,08,08,11,116.70
2020,08,08,08,12,123.40
2020,08,08,08,13,122.30
2020,08,08,08,14,108.80
2020,08,08,08,15,101.50
2020,08,08,08,16,105.00
2020,08,08,08,17,111.30
2020,08,08,08,18,114.00
2020,08,08,08,19,122.80
2020,08,08,08,20,128.00
2020,08,08,08,21,127.80
2020,08,08,08,22,127.40
2020,08,08,08,23,125.80
2020,08,08,08,24,125.20
2020,08,08,08,25,131.60
2020,08,08,08,26,137.80
2020,08,08,08,27,141.60
2020,08,08,08,28,142.20
2020,08,08,08,29,144.30
2020,08,08,08,30,145.40
2020,08,08,08,31,143.20
2020,08,08,08,32,142.00
2020,08,08,08,33,142.00
2020,08,08,08,34,142.00
2020,08,08,08,35,143.70
2020,08,08,08,36,147.80
2020,08,08,08,37,151.20
2020,08,08,08,38,153.50
2020,08,08,08,39,158.50
2020,08,08,08,40,166.80
2020,08,08,08,41,169.00
2020,08,08,08,42,170.90
2020,08,08,08,43,173.40
2020,08,08,08,44,178.30
2020,08,08,08,45,192.10
2020,08,08,08,46,203.00
2020,08,08,08,47,188.50
2020,08,08,08,48,185.40
2020,08,08,08,49,183.60
2020,08,08,08,50,177.10
2020,08,08,08,51,170.80
2020,08,08,08,52,166.00
2020,08,08,08,53,163.20
2020,08,08,08,54,165.20
2020,08,08,08,55,167.80
2020,08,08,08,56,171.90
2020,08,08,08,57,174.90
2020,08,08,08,58,178.50
2020,08,08,08,59,184.00
2020,08,08,09,00,187.50
2020,08,08,09,01,189.70
2020,08,08,09,02,190.10
2020,08,08,09,03,192.10
2020,08,08,09,04,194.00
2020,08,08,09,05,198.00
2020,08,08,09,06,200.00
2020,08,08,09,07,200.00
2020,08,08,09,08,201.30
2020,08,08,09,09,203.50
2020,08,08,09,10,206.60
2020,08,08,09,11,208.80
2020,08,08,09,12,207.40
2020,08,08,09,13,209.00
2020,08,08,09,14,209.00
2020,08,08,09,15,210.00
2020,08,08,09,16,211.00
2020,08,08,09,17,212.40
2020,08,08,09,18,215.40
2020,08,08,09,19,219.60
2020,08,08,09,20,221.00
2020,08,08,09,21,221.50
2020,08,08,09,22,223.60
2020,08,08,09,23,226.80
2020,08,08,09,24,229.00
2020,08,08,09,25,229.60
2020,08,08,09,26,229.20
2020,08,08,09,27,227.20
2020,08,08,09,28,225.10
2020,08,08,09,29,225.30
2020,08,08,09,30,227.90
2020,08,08,09,31,232.40
2020,08,08,09,32,237.40
2020,08,08,09,33,241.20
2020,08,08,09,34,246.50
2020,08,08,09,35,252.00
2020,08,08,09,36,253.00
2020,08,08,09,37,249.80
2020,08,08,09,38,247.00
2020,08,08,09,39,243.10
2020,08,08,09,40,239.40
2020,08,08,09,41,236.50
2020,08,08,09,42,236.00
2020,08,08,09,43,236.70
2020,08,08,09,44,237.00
2020,08,08,09,45,239.10
2020,08,08,09,46,243.50
2020,08,08,09,47,246.50
2020,08,08,09,48,249.80
2020,08,08,09,49,255.20
2020,08,08,09,50,260.20
2020,08,08,09,51,264.00
2020,08,08,09,52,268.00
2020,08,08,09,53,270.80
2020,08,08,09,54,268.60
2020,08,08,09,55,258.80
2020,08,08,09,56,247.50
2020,08,08,09,57,251.00
2020,08,08,09,58,247.50
2020,08,08,09,59,243.40
2020,08,08,10,00,251.40
2020,08,08,10,01,255.00
2020,08,08,10,02,267.80
2020,08,08,10,03,270.70
2020,08,08,10,04,268.50
2020,08,08,10,05,268.40
2020,08,08,10,06,274.10
2020,08,08,10,07,283.00
2020,08,08,10,08,342.90
2020,08,08,10,09,313.80
2020,08,08,10,10,288.90
2020,08,08,10,11,285.30
2020,08,08,10,12,287.00
2020,08,08,10,13,280.30
2020,08,08,10,14,271.50
2020,08,08,10,15,268.00
2020,08,08,10,16,270.80
2020,08,08,10,17,277.00
2020,08,08,10,18,278.10
2020,08,08,10,19,284.30
2020,08,08,10,20,290.50
2020,08,08,10,21,296.20
2020,08,08,10,22,302.50
2020,08,08,10,23,308.10
2020,08,08,10,24,313.80
2020,08,08,10,25,322.90
2020,08,08,10,26,334.70
2020,08,08,10,27,342.30
2020,08,08,10,28,339.00
2020,08,08,10,29,336.80
2020,08,08,10,30,342.10
2020,08,08,10,31,345.00
2020,08,08,10,32,342.20
2020,08,08,10,33,338.40
2020,08,08,10,34,336.60
2020,08,08,10,35,337.60
2020,08,08,10,36,336.20
2020,08,08,10,37,337.50
2020,08,08,10,38,334.00
2020,08,08,10,39,335.30
2020,08,08,10,40,340.00
2020,08,08,10,41,345.50
2020,08,08,10,42,351.10
2020,08,08,10,43,355.80
2020,08,08,10,44,358.60
2020,08,08,10,45,359.90
2020,08,08,10,46,359.90
2020,08,08,10,47,359.20
2020,08,08,10,48,360.70
2020,08,08,10,49,363.70
2020,08,08,10,50,368.90
2020,08,08,10,51,369.70
2020,08,08,10,52,369.00
2020,08,08,10,53,370.70
2020,08,08,10,54,373.90
2020,08,08,10,55,374.00
2020,08,08,10,56,372.60
2020,08,08,10,57,369.00
2020,08,08,10,58,365.50
2020,08,08,10,59,360.20
2020,08,08,11,00,359.00
2020,08,08,11,01,359.80
2020,08,08,11,02,363.80
2020,08,08,11,03,374.10
2020,08,08,11,04,382.90
2020,08,08,11,05,401.90
2020,08,08,11,06,415.00
2020,08,08,11,07,410.00
2020,08,08,11,08,476.80
2020,08,08,11,09,441.00
2020,08,08,11,10,412.00
2020,08,08,11,11,401.30
2020,08,08,11,12,398.00
2020,08,08,11,13,404.50
2020,08,08,11,14,406.70
2020,08,08,11,15,412.30
2020,08,08,11,16,421.40
2020,08,08,11,17,428.90
2020,08,08,11,18,431.80
2020,08,08,11,19,439.70
2020,08,08,11,20,452.10
2020,08,08,11,21,480.60
2020,08,08,11,22,543.00
2020,08,08,11,23,580.20
2020,08,08,11,24,567.00
2020,08,08,11,25,533.10
2020,08,08,11,26,492.50
2020,08,08,11,27,493.20
2020,08,08,11,28,504.50
2020,08,08,11,29,502.10
2020,08,08,11,30,527.00
2020,08,08,11,31,548.00
2020,08,08,11,32,541.70
2020,08,08,11,33,542.00
2020,08,08,11,34,584.30
2020,08,08,11,35,601.00
2020,08,08,11,36,601.00
2020,08,08,11,37,592.00
2020,08,08,11,38,592.00
2020,08,08,11,39,582.70
2020,08,08,11,40,553.40
2020,08,08,11,41,544.20
2020,08,08,11,42,539.00
2020,08,08,11,43,524.30
2020,08,08,11,44,523.40
2020,08,08,11,45,540.20
2020,08,08,11,46,571.50
2020,08,08,11,47,540.00
2020,08,08,11,48,557.30
2020,08,08,11,49,592.00
2020,08,08,11,50,592.00
2020,08,08,11,51,592.00
2020,08,08,11,52,561.20
2020,08,08,11,53,555.70
2020,08,08,11,54,566.60
2020,08,08,11,55,621.80
2020,08,08,11,56,598.00
2020,08,08,11,57,598.00
2020,08,08,11,58,598.00
2020,08,08,11,59,598.00
2020,08,08,12,00,598.00
2020,08,08,12,01,634.40
2020,08,08,12,02,621.40
2020,08,08,12,03,625.80
2020,08,08,12,04,642.60
2020,08,08,12,05,708.60
2020,08,08,12,06,689.00
2020,08,08,12,07,689.00
2020,08,08,12,08,877.50
2020,08,08,12,09,979.00
2020,08,08,12,10,637.30
2020,08,08,12,11,562.00
2020,08,08,12,12,551.00
2020,08,08,12,13,566.60
2020,08,08,12,14,565.50
2020,08,08,12,15,574.50
2020,08,08,12,16,580.00
2020,08,08,12,17,580.00
2020,08,08,12,18,1087.60
2020,08,08,12,19,1223.00
2020,08,08,12,20,1186.70
2020,08,08,12,21,522.90
2020,08,08,12,22,475.20
2020,08,08,12,23,470.90
2020,08,08,12,24,493.30
2020,08,08,12,25,532.10
2020,08,08,12,26,521.50
2020,08,08,12,27,536.80
2020,08,08,12,28,574.30
2020,08,08,12,29,578.00
2020,08,08,12,30,547.80
2020,08,08,12,31,453.90
2020,08,08,12,32,450.70
2020,08,08,12,33,462.20
2020,08,08,12,34,466.90
2020,08,08,12,35,502.80
2020,08,08,12,36,518.40
2020,08,08,12,37,453.70
2020,08,08,12,38,431.80
2020,08,08,12,39,493.10
2020,08,08,12,40,561.00
2020,08,08,12,41,613.00
2020,08,08,12,42,671.20
2020,08,08,12,43,770.20
2020,08,08,12,44,798.00
2020,08,08,12,45,942.00
2020,08,08,12,46,981.50
2020,08,08,12,47,984.80
2020,08,08,12,48,981.00
2020,08,08,12,49,786.20
2020,08,08,12,50,498.50
2020,08,08,12,51,503.00
2020,08,08,12,52,503.00
2020,08,08,12,53,513.10
2020,08,08,12,54,530.90
2020,08,08,12,55,833.60
2020,08,08,12,56,837.00
2020,08,08,12,57,836.30
2020,08,08,12,58,835.00
2020,08,08,12,59,840.00
2020,08,08,13,00,852.00
2020,08,08,13,01,864.70
2020,08,08,13,02,867.00
2020,08,08,13,03,867.00
2020,08,08,13,04,867.00
2020,08,08,13,05,867.00
2020,08,08,13,06,867.00
2020,08,08,13,07,867.00
2020,08,08,13,08,840.40
2020,08,08,13,09,824.00
2020,08,08,13,10,824.00
2020,08,08,13,11,824.00
2020,08,08,13,12,817.40
2020,08,08,13,13,758.00
2020,08,08,13,14,595.60
2020,08,08,13,15,313.80
2020,08,08,13,16,338.00
2020,08,08,13,17,338.00
2020,08,08,13,18,338.00
2020,08,08,13,19,380.50
2020,08,08,13,20,388.00
2020,08,08,13,21,500.20
2020,08,08,13,22,943.90
2020,08,08,13,23,932.00
2020,08,08,13,24,932.00
2020,08,08,13,25,905.60
2020,08,08,13,26,871.70
2020,08,08,13,27,858.10
2020,08,08,13,28,838.90
2020,08,08,13,29,834.60
2020,08,08,13,30,830.30
2020,08,08,13,31,825.90
2020,08,08,13,32,823.10
2020,08,08,13,33,823.20
2020,08,08,13,34,824.20
2020,08,08,13,35,828.90
2020,08,08,13,36,819.00
2020,08,08,13,37,812.50
2020,08,08,13,38,816.20
2020,08,08,13,39,812.50
2020,08,08,13,40,812.20
2020,08,08,13,41,812.80
2020,08,08,13,42,816.40
2020,08,08,13,43,811.10
2020,08,08,13,44,804.30
2020,08,08,13,45,798.50
2020,08,08,13,46,793.50
2020,08,08,13,47,797.40
2020,08,08,13,48,804.20
2020,08,08,13,49,804.90
2020,08,08,13,50,799.10
2020,08,08,13,51,801.70
2020,08,08,13,52,814.30
2020,08,08,13,53,823.20
2020,08,08,13,54,824.00
2020,08,08,13,55,821.40
2020,08,08,13,56,825.20
2020,08,08,13,57,830.40
2020,08,08,13,58,827.40
2020,08,08,13,59,823.50
2020,08,08,14,00,828.30
2020,08,08,14,01,828.80
2020,08,08,14,02,826.30
2020,08,08,14,03,830.70
2020,08,08,14,04,830.00
2020,08,08,14,05,829.40
2020,08,08,14,06,826.40
2020,08,08,14,07,823.50
2020,08,08,14,08,824.70
2020,08,08,14,09,824.50
2020,08,08,14,10,821.70
2020,08,08,14,11,822.80
2020,08,08,14,12,819.30
2020,08,08,14,13,822.10
2020,08,08,14,14,826.00
2020,08,08,14,15,826.90
2020,08,08,14,16,827.00
2020,08,08,14,17,826.00
2020,08,08,14,18,824.60
2020,08,08,14,19,827.40
2020,08,08,14,20,824.50
2020,08,08,14,21,825.70
2020,08,08,14,22,821.00
2020,08,08,14,23,808.80
2020,08,08,14,24,812.50
2020,08,08,14,25,824.00
2020,08,08,14,26,822.00
2020,08,08,14,27,821.00
2020,08,08,14,28,821.00
2020,08,08,14,29,820.80
2020,08,08,14,30,819.00
2020,08,08,14,31,818.40
2020,08,08,14,32,817.80
2020,08,08,14,33,817.40
2020,08,08,14,34,816.00
2020,08,08,14,35,816.00
2020,08,08,14,36,816.00
2020,08,08,14,37,816.90
2020,08,08,14,38,815.70
2020,08,08,14,39,814.00
2020,08,08,14,40,814.00
2020,08,08,14,41,812.30
2020,08,08,14,42,811.20
2020,08,08,14,43,810.00
2020,08,08,14,44,809.00
2020,08,08,14,45,807.30
2020,08,08,14,46,807.00
2020,08,08,14,47,806.40
2020,08,08,14,48,803.50
2020,08,08,14,49,805.00
2020,08,08,14,50,804.00
2020,08,08,14,51,803.00
2020,08,08,14,52,800.90
2020,08,08,14,53,801.60
2020,08,08,14,54,798.40
2020,08,08,14,55,789.00
2020,08,08,14,56,789.40
2020,08,08,14,57,790.40
2020,08,08,14,58,791.40
2020,08,08,14,59,795.50
2020,08,08,15,00,794.00
2020,08,08,15,01,787.80
2020,08,08,15,02,790.50
2020,08,08,15,03,782.70
2020,08,08,15,04,786.40
2020,08,08,15,05,790.10
2020,08,08,15,06,767.00
2020,08,08,15,07,715.00
2020,08,08,15,08,660.00
2020,08,08,15,09,615.00
2020,08,08,15,10,751.60
2020,08,08,15,11,790.60
2020,08,08,15,12,781.30
2020,08,08,15,13,773.20
2020,08,08,15,14,766.00
2020,08,08,15,15,768.50
2020,08,08,15,16,772.00
2020,08,08,15,17,770.70
2020,08,08,15,18,768.60
2020,08,08,15,19,769.70
2020,08,08,15,20,769.90
2020,08,08,15,21,768.30
2020,08,08,15,22,770.00
2020,08,08,15,23,769.30
2020,08,08,15,24,768.00
2020,08,08,15,25,766.80
2020,08,08,15,26,765.40
2020,08,08,15,27,763.40
2020,08,08,15,28,763.00
2020,08,08,15,29,760.60
2020,08,08,15,30,755.00
2020,08,08,15,31,751.00
2020,08,08,15,32,751.00
2020,08,08,15,33,750.00
2020,08,08,15,34,750.20
2020,08,08,15,35,749.60
2020,08,08,15,36,747.40
2020,08,08,15,37,742.20
2020,08,08,15,38,739.30
2020,08,08,15,39,733.40
2020,08,08,15,40,734.30
2020,08,08,15,41,733.00
2020,08,08,15,42,733.00
2020,08,08,15,43,734.30
2020,08,08,15,44,733.50
2020,08,08,15,45,728.80
2020,08,08,15,46,724.40
2020,08,08,15,47,723.60
2020,08,08,15,48,722.00
2020,08,08,15,49,721.60
2020,08,08,15,50,722.50
2020,08,08,15,51,710.10
2020,08,08,15,52,697.30
2020,08,08,15,53,697.60
2020,08,08,15,54,690.30
2020,08,08,15,55,694.40
2020,08,08,15,56,700.50
2020,08,08,15,57,708.00
2020,08,08,15,58,709.70
2020,08,08,15,59,709.40
2020,08,08,16,00,707.00
2020,08,08,16,01,707.70
2020,08,08,16,02,709.70
2020,08,08,16,03,696.90
2020,08,08,16,04,699.40
2020,08,08,16,05,693.10
2020,08,08,16,06,685.00
2020,08,08,16,07,683.80
2020,08,08,16,08,682.20
2020,08,08,16,09,681.30
2020,08,08,16,10,674.40
2020,08,08,16,11,668.80
2020,08,08,16,12,664.40
2020,08,08,16,13,666.00
2020,08,08,16,14,665.20
2020,08,08,16,15,658.80
2020,08,08,16,16,657.70
2020,08,08,16,17,662.20
2020,08,08,16,18,662.50
2020,08,08,16,19,665.50
2020,08,08,16,20,661.50
2020,08,08,16,21,663.50
2020,08,08,16,22,668.50
2020,08,08,16,23,668.60
2020,08,08,16,24,664.70
2020,08,08,16,25,663.00
2020,08,08,16,26,661.70
2020,08,08,16,27,661.00
2020,08,08,16,28,657.40
2020,08,08,16,29,655.80
2020,08,08,16,30,651.40
2020,08,08,16,31,647.80
2020,08,08,16,32,643.80
2020,08,08,16,33,641.00
2020,08,08,16,34,640.00
2020,08,08,16,35,638.60
2020,08,08,16,36,636.40
2020,08,08,16,37,631.50
2020,08,08,16,38,630.80
2020,08,08,16,39,628.40
2020,08,08,16,40,625.30
2020,08,08,16,41,623.10
2020,08,08,16,42,620.50
2020,08,08,16,43,617.70
2020,08,08,16,44,614.00
2020,08,08,16,45,614.70
2020,08,08,16,46,612.30
2020,08,08,16,47,613.00
2020,08,08,16,48,596.40
2020,08,08,16,49,556.40
2020,08,08,16,50,604.10
2020,08,08,16,51,579.90
2020,08,08,16,52,584.30
2020,08,08,16,53,596.00
2020,08,08,16,54,596.00
2020,08,08,16,55,595.80
2020,08,08,16,56,593.00
2020,08,08,16,57,587.60
2020,08,08,16,58,584.60
2020,08,08,16,59,583.00
2020,08,08,17,00,580.80
2020,08,08,17,01,578.60
2020,08,08,17,02,577.20
2020,08,08,17,03,573.10
2020,08,08,17,04,571.00
2020,08,08,17,05,570.40
2020,08,08,17,06,567.20
2020,08,08,17,07,564.70
2020,08,08,17,08,563.00
2020,08,08,17,09,560.50
2020,08,08,17,10,559.00
2020,08,08,17,11,555.60